Hourly Weather Gofickoe

Today, 17 June, Thursday

Time Temperature Precipitation Wind Pressure Humidity
00:00 +21°C° 0 mm 4 mps 734 mmHg 69%
01:00 +21°C° 0 mm 3 mps 734 mmHg 73%
02:00 +20°C° 0 mm 3 mps 734 mmHg 77%
03:00 +20°C° 0 mm 2 mps 734 mmHg 81%
04:00 +20°C° 0 mm 2 mps 734 mmHg 81%
05:00 +22°C° 0 mm 1 mps 734 mmHg 81%
06:00 +22°C° 0 mm 1 mps 734 mmHg 81%
07:00 +24°C° 0 mm 1 mps 735 mmHg 76%
08:00 +25°C° 0 mm 1 mps 735 mmHg 72%
09:00 +26°C° 0 mm 1 mps 735 mmHg 68%
10:00 +27°C° 0.1 mm 3 mps 736 mmHg 67%
11:00 +27°C° 0.1 mm 5 mps 736 mmHg 67%
12:00 +27°C° 0.1 mm 7 mps 737 mmHg 67%
13:00 +27°C° 0 mm 8 mps 737 mmHg 68%
14:00 +27°C° 0 mm 9 mps 737 mmHg 70%
15:00 +26°C° 0 mm 10 mps 738 mmHg 71%
16:00 +24°C° 0.2 mm 10 mps 738 mmHg 73%
17:00 +23°C° 0.2 mm 10 mps 739 mmHg 75%
18:00 +22°C° 0.2 mm 9 mps 739 mmHg 78%
19:00 +21°C° 0.2 mm 9 mps 740 mmHg 78%
20:00 +20°C° 0.2 mm 8 mps 741 mmHg 79%
21:00 +18°C° 0.2 mm 7 mps 741 mmHg 80%
22:00 +18°C° 0 mm 7 mps 741 mmHg 81%
23:00 +17°C° 0 mm 6 mps 741 mmHg 83%

Tomorrow, 18 June, Friday

Time Temperature Precipitation Wind Pressure Humidity
00:00 +17°C° 0 mm 6 mps 742 mmHg 84%
01:00 +16°C° 0 mm 5 mps 742 mmHg 87%
02:00 +17°C° 0 mm 4 mps 742 mmHg 89%
03:00 +15°C° 0 mm 4 mps 742 mmHg 91%
04:00 +17°C° 0 mm 4 mps 742 mmHg 90%
05:00 +17°C° 0 mm 4 mps 743 mmHg 89%
06:00 +17°C° 0 mm 4 mps 743 mmHg 88%
07:00 +19°C° 0 mm 4 mps 743 mmHg 80%
08:00 +20°C° 0 mm 4 mps 743 mmHg 72%
09:00 +22°C° 0 mm 4 mps 743 mmHg 64%
10:00 +23°C° 0 mm 4 mps 743 mmHg 60%
11:00 +25°C° 0 mm 4 mps 743 mmHg 56%
12:00 +26°C° 0 mm 4 mps 743 mmHg 51%
13:00 +27°C° 0 mm 3 mps 743 mmHg 51%
14:00 +27°C° 0 mm 3 mps 743 mmHg 50%
15:00 +28°C° 0 mm 3 mps 742 mmHg 49%
16:00 +28°C° 0 mm 3 mps 743 mmHg 52%
17:00 +27°C° 0 mm 2 mps 743 mmHg 55%
18:00 +27°C° 0 mm 2 mps 743 mmHg 59%
19:00 +26°C° 0 mm 1 mps 743 mmHg 64%
20:00 +24°C° 0 mm 1 mps 743 mmHg 69%
21:00 +22°C° 0 mm 1 mps 743 mmHg 74%
22:00 +22°C° 0 mm 1 mps 743 mmHg 77%
23:00 +21°C° 0 mm 1 mps 743 mmHg 81%

Day after tomorrow, 19 June, Saturday

Time Temperature Precipitation Wind Pressure Humidity
00:00 +21°C° 0 mm 1 mps 742 mmHg 84%
01:00 +21°C° 0 mm 1 mps 742 mmHg 85%
02:00 +20°C° 0 mm 1 mps 742 mmHg 87%
03:00 +20°C° 0 mm 1 mps 742 mmHg 89%
04:00 +20°C° 0 mm 2 mps 742 mmHg 88%
05:00 +20°C° 0 mm 2 mps 742 mmHg 86%
06:00 +21°C° 0 mm 2 mps 742 mmHg 85%
07:00 +23°C° 0 mm 4 mps 742 mmHg 79%
08:00 +24°C° 0 mm 6 mps 742 mmHg 73%
09:00 +27°C° 0 mm 7 mps 742 mmHg 66%
10:00 +28°C° 0 mm 8 mps 742 mmHg 60%
11:00 +29°C° 0 mm 8 mps 742 mmHg 54%
12:00 +32°C° 0 mm 9 mps 741 mmHg 48%
13:00 +32°C° 0 mm 9 mps 741 mmHg 47%
14:00 +32°C° 0 mm 9 mps 741 mmHg 46%
15:00 +33°C° 0 mm 9 mps 740 mmHg 44%
16:00 +31°C° 0 mm 9 mps 740 mmHg 46%
17:00 +29°C° 0 mm 9 mps 740 mmHg 48%
18:00 +28°C° 0 mm 9 mps 740 mmHg 49%
19:00 +27°C° 0 mm 8 mps 741 mmHg 49%
20:00 +26°C° 0 mm 8 mps 741 mmHg 49%
21:00 +24°C° 0 mm 7 mps 741 mmHg 48%
22:00 +23°C° 0 mm 7 mps 741 mmHg 47%
23:00 +22°C° 0 mm 7 mps 741 mmHg 45%

20 June, Sunday

Time Temperature Precipitation Wind Pressure Humidity
00:00 +21°C° 0 mm 7 mps 740 mmHg 43%
01:00 +21°C° 0 mm 6 mps 740 mmHg 43%
02:00 +21°C° 0 mm 6 mps 740 mmHg 43%
03:00 +20°C° 0 mm 6 mps 740 mmHg 43%
04:00 +20°C° 0 mm 5 mps 740 mmHg 48%
05:00 +20°C° 0 mm 5 mps 740 mmHg 53%
06:00 +20°C° 0 mm 4 mps 740 mmHg 59%
07:00 +22°C° 0 mm 5 mps 740 mmHg 57%
08:00 +24°C° 0 mm 6 mps 740 mmHg 56%
09:00 +27°C° 0 mm 7 mps 740 mmHg 55%
10:00 +29°C° 0 mm 7 mps 740 mmHg 50%
11:00 +32°C° 0 mm 8 mps 739 mmHg 44%
12:00 +34°C° 0 mm 8 mps 739 mmHg 39%
13:00 +35°C° 0 mm 8 mps 739 mmHg 39%
14:00 +36°C° 0 mm 7 mps 739 mmHg 39%
15:00 +36°C° 0 mm 7 mps 739 mmHg 38%
16:00 +35°C° 0 mm 8 mps 739 mmHg 41%
17:00 +33°C° 0 mm 8 mps 739 mmHg 44%
18:00 +31°C° 0 mm 8 mps 739 mmHg 47%
19:00 +28°C° 0 mm 8 mps 739 mmHg 44%
20:00 +27°C° 0 mm 8 mps 740 mmHg 42%
21:00 +24°C° 0 mm 8 mps 740 mmHg 40%
22:00 +24°C° 0 mm 8 mps 740 mmHg 41%
23:00 +23°C° 0 mm 7 mps 740 mmHg 43%

21 June, Monday

Time Temperature Precipitation Wind Pressure Humidity
00:00 +23°C° 0 mm 7 mps 739 mmHg 45%
01:00 +22°C° 0 mm 7 mps 739 mmHg 47%
02:00 +22°C° 0 mm 7 mps 739 mmHg 49%
03:00 +21°C° 0 mm 6 mps 739 mmHg 52%
04:00 +21°C° 0 mm 6 mps 739 mmHg 56%
05:00 +21°C° 0 mm 6 mps 739 mmHg 60%
06:00 +21°C° 0 mm 5 mps 739 mmHg 64%
07:00 +23°C° 0 mm 6 mps 739 mmHg 58%
08:00 +26°C° 0 mm 7 mps 739 mmHg 52%
09:00 +28°C° 0 mm 7 mps 739 mmHg 46%
10:00 +31°C° 0 mm 8 mps 739 mmHg 41%
11:00 +33°C° 0 mm 8 mps 739 mmHg 37%
12:00 +34°C° 0 mm 8 mps 739 mmHg 32%
13:00 +35°C° 0 mm 8 mps 739 mmHg 31%
14:00 +37°C° 0 mm 8 mps 738 mmHg 30%
15:00 +38°C° 0 mm 7 mps 738 mmHg 29%
16:00 +35°C° 0 mm 7 mps 738 mmHg 32%
17:00 +33°C° 0 mm 7 mps 739 mmHg 35%
18:00 +30°C° 0 mm 7 mps 739 mmHg 37%
19:00 +28°C° 0 mm 6 mps 739 mmHg 37%
20:00 +27°C° 0 mm 6 mps 739 mmHg 36%
21:00 +25°C° 0 mm 5 mps 740 mmHg 35%
22:00 +23°C° 0 mm 5 mps 740 mmHg 37%
23:00 +22°C° 0 mm 4 mps 739 mmHg 40%

22 June, Tuesday

Time Temperature Precipitation Wind Pressure Humidity
00:00 +21°C° 0 mm 4 mps 739 mmHg 42%
01:00 +20°C° 0 mm 3 mps 739 mmHg 48%
02:00 +20°C° 0 mm 3 mps 739 mmHg 54%
03:00 +19°C° 0 mm 2 mps 739 mmHg 60%
04:00 +19°C° 0 mm 2 mps 739 mmHg 61%
05:00 +20°C° 0 mm 2 mps 739 mmHg 63%
06:00 +21°C° 0 mm 2 mps 739 mmHg 65%
07:00 +24°C° 0 mm 3 mps 739 mmHg 59%
08:00 +26°C° 0 mm 4 mps 739 mmHg 52%
09:00 +28°C° 0 mm 6 mps 739 mmHg 46%
10:00 +30°C° 0 mm 6 mps 739 mmHg 41%
11:00 +32°C° 0 mm 6 mps 739 mmHg 36%
12:00 +34°C° 0 mm 7 mps 739 mmHg 31%
13:00 +35°C° 0 mm 6 mps 739 mmHg 29%
14:00 +36°C° 0 mm 6 mps 738 mmHg 28%
15:00 +37°C° 0 mm 5 mps 738 mmHg 26%
16:00 +36°C° 0 mm 4 mps 738 mmHg 32%
17:00 +35°C° 0 mm 3 mps 738 mmHg 38%
18:00 +34°C° 0 mm 3 mps 738 mmHg 44%
19:00 +31°C° 0 mm 3 mps 738 mmHg 43%
20:00 +29°C° 0 mm 4 mps 739 mmHg 42%
21:00 +27°C° 0 mm 5 mps 739 mmHg 41%
22:00 +26°C° 0.1 mm 4 mps 739 mmHg 43%
23:00 +25°C° 0.1 mm 4 mps 739 mmHg 45%
Show more

We Need Your Consent

Meteoprog and our Service Providers may store and access personal data such as cookies, device identifiers or other similar technologies on your device and process such data to personalise content and ads, as well as provide social media features and to analyse the traffic.

  • Store and/or access information on your device

    Cookies, device identifiers or other information can be stored or accessed on your device for the purposes indicated above.

  • Personalised ads and content, ad and content measurement, audience insights, and products development

    Ads and content can be personalised based on a profile. More data can be added to better personalise ads and content. Ad and content performance can be measured. Insights about the audience who saw the ads and content can be derived. Such data can be used to develop or improve user’s experience, systems and software.

By clicking ‘I Agree’ you will allow the use of indicated cookies, device identifiers, web beacons or other similar technologies. Your settings can be changed in the browser on your device.

For certain purposes, legitimate interests may be relied on, rather than consent. You can read more about this in our Privacy and Cookie Policy.